Atqasuk Edward Burnell Sr Mem, AK

3:43 PM AKST on November 18, 2019 (GMT -0900)
Atqasuk Edward Burnell Sr Mem

Weather History for PATQ - September, 2019

Change the Weather History Date:

Tuesday, September 17, 2019

  Actual Average (PABR) Record (PABR)
Temperature  
Mean Temperature 34 °F -  
Max Temperature 39 °F 34 °F 51 °F (1991)
Min Temperature 30 °F 27 °F 12 °F (1983)
Degree Days  
Heating Degree Days 30    
Moisture  
Dew Point 31 °F    
Average Humidity 87    
Maximum Humidity 100    
Minimum Humidity 65    
Precipitation  
Precipitation 0.00 in - - ()
Sea Level Pressure  
Sea Level Pressure 29.88 in    
Wind  
Wind Speed 9 mph (North)    
Max Wind Speed 12 mph    
Max Gust Speed -    
Visibility 10 miles    
Events Rain    
Averages and records for this station are not official NWS values.
T = Trace of Precipitation, MM = Missing Value Source: NWS Daily Summary

Daily Weather History Graph

Daily Weather History Graph

Search for Another Location

Airport or City:

Astronomy

Sep. 17, 2019 Rise Set
Actual Time 7:49 AM AKDT 8:56 PM AKDT
Civil Twilight 6:44 AM AKDT 10:00 PM AKDT
Nautical Twilight 5:15 AM AKDT 11:27 PM AKDT
Astronomical Twilight 2:56 AM AKDT 1:51 AM AKDT
Moon 9:15 PM AKDT (9/17) 12:43 PM AKDT (9/17)
Length of Visible Light 15h 16m
Length of Day
13h 07m
Waning Gibbous, 88% of the Moon is Illuminated
Sep 17
Waning Gibbous
Sep 21
Last Quarter
Sep 28
New
Oct 5
First Quarter
Oct 13
Full

Hourly Weather History & Observations

Time (AKDT) Temp. Windchill Dew Point Humidity Pressure Visibility Wind Dir Wind Speed Gust Speed Precip Events Conditions
12:56 AM 32.0 °F 23.6 °F 30.9 °F 96% 29.95 in 10.0 mi North 10.4 mph - N/A   Mostly Cloudy
2:21 AM 32.0 °F 23.6 °F 30.2 °F 93% 29.93 in 10.0 mi North 10.4 mph - N/A   Mostly Cloudy
2:48 AM 30.2 °F 21.3 °F 30.2 °F 100% 29.93 in 10.0 mi North 10.4 mph - N/A   Scattered Clouds
2:56 AM 32.0 °F 23.6 °F 32.0 °F 100% 29.95 in 10.0 mi North 10.4 mph - N/A   Mostly Cloudy
3:03 AM 32.0 °F 23.6 °F 32.0 °F 100% 29.93 in 10.0 mi North 10.4 mph - N/A   Mostly Cloudy
3:37 AM 32.0 °F 23.6 °F 30.2 °F 93% 29.92 in 10.0 mi North 10.4 mph - N/A   Overcast
3:56 AM 33.1 °F 25.5 °F 32.0 °F 96% 29.95 in 10.0 mi North 9.2 mph - N/A   Overcast
4:29 AM 33.8 °F 26.4 °F 32.0 °F 93% 29.92 in 10.0 mi North 9.2 mph - N/A   Overcast
4:56 AM 33.1 °F 24.9 °F 32.0 °F 96% 29.94 in 10.0 mi North 10.4 mph - N/A   Overcast
5:56 AM 33.1 °F 25.5 °F 32.0 °F 96% 29.94 in 10.0 mi North 9.2 mph - N/A   Overcast
6:56 AM 33.1 °F 25.5 °F 30.9 °F 92% 29.93 in 10.0 mi North 9.2 mph - N/A   Overcast
7:56 AM 33.1 °F 24.9 °F 30.9 °F 92% 29.92 in 10.0 mi North 10.4 mph - N/A   Overcast
8:56 AM 33.1 °F 26.1 °F 30.9 °F 92% 29.92 in 10.0 mi NNW 8.1 mph - N/A   Overcast
9:45 AM 33.8 °F 27.0 °F 30.2 °F 87% 29.89 in 10.0 mi NNW 8.1 mph - N/A   Overcast
10:56 AM 34.0 °F 25.5 °F 32.0 °F 92% 29.91 in 10.0 mi NNW 11.5 mph - N/A   Overcast
11:56 AM 35.1 °F 29.3 °F 32.0 °F 89% 29.90 in 10.0 mi North 6.9 mph - N/A   Overcast
12:56 PM 37.0 °F 31.6 °F 33.1 °F 86% 29.90 in 10.0 mi NNW 6.9 mph - N/A   Overcast
1:56 PM 37.9 °F 32.1 °F 32.0 °F 79% 29.88 in 10.0 mi NNW 8.1 mph - N/A   Overcast
2:56 PM 37.9 °F 31.5 °F 30.9 °F 76% 29.88 in 10.0 mi NNW 9.2 mph - N/A   Overcast
3:56 PM 39.0 °F 34.8 °F 30.9 °F 73% 29.86 in 10.0 mi NNW 5.8 mph - N/A   Overcast
4:56 PM 39.0 °F 35.7 °F 30.0 °F 70% 29.85 in 10.0 mi North 4.6 mph - N/A   Overcast
5:49 PM 39.2 °F 35.0 °F 28.4 °F 65% 29.82 in 10.0 mi North 5.8 mph - N/A   Overcast
5:56 PM 39.0 °F 32.8 °F 30.0 °F 70% 29.84 in 10.0 mi North 9.2 mph - N/A   Overcast
6:56 PM 37.9 °F 32.7 °F 30.0 °F 73% 29.83 in 10.0 mi NNW 6.9 mph - N/A   Overcast
7:56 PM 37.9 °F 32.7 °F 30.9 °F 76% 29.81 in 10.0 mi NNE 6.9 mph - N/A   Overcast
8:56 PM 37.0 °F 32.4 °F 32.0 °F 82% 29.80 in 9.0 mi North 5.8 mph - N/A   Overcast
9:23 PM 37.4 °F 32.8 °F 32.0 °F 81% 29.77 in 10.0 mi North 5.8 mph - N/A   Overcast
9:56 PM 36.0 °F 31.1 °F 33.1 °F 89% 29.78 in 10.0 mi North 5.8 mph - N/A   Overcast
10:56 PM 36.0 °F 30.3 °F 33.1 °F 89% 29.77 in 10.0 mi North 6.9 mph - 0.00 in   Overcast
11:56 PM 36.0 °F 29.0 °F 35.1 °F 97% 29.75 in 10.0 mi NNE 9.2 mph - 0.00 in Rain Light Rain